Location: *
(42.5628°N, 2.3633°E)
Time: 08:56:32
(UTC+00:00)

USA 186 - Pass Details

Date: 30 March 2020
Orbit: 262 x 445 km, 96.9° (Epoch: 03 June)

Event Time Altitude Azimuth Distance (km) Brightness Sun altitude
Rises 17:57:59 0° 108° (ESE) 2,468 5.0 2.2°
Enters shadow 19:02:16 -57° 169° (SSE) 11,121 8.9 -9.4°
Maximum altitude 19:32:10 78° 258° (WSW) 469 2.0 -14.7°
